Home > Time Zones > World Clock > Weather > Macau > Macau > Past weeks

Flag for Macau Weather past 2 weeks in Macau, Macau

Now
82 °F

Clear.


Feels Like: 91 °F
Forecast: 80 / 89 °F
Wind: 7 mph from Southwest

Location: Taipa

Current Time: Oct 3, 2014 at 12:57:43 AM

Latest Report: Oct 3, 2014 at 12:00 AM


Visibility: 6 mi

Pressure: 29.80 "Hg

Humidity: 84%

Dew point: 77 °F

Location of MacauLocation

Historic Weather in Macau — Graph

°F

Macau temperature yesterday

Maximum temperature yesterday: 90 °F (at 2:30 PM)
Minimum temperature yesterday: 77 °F (at 5:30 AM)
Average temperature yesterday: 84 °F

Past Weeks' High & Low Weather Summary

 TemperatureHumidityPressure
High91 °F (Sep 19, 12:00 PM)94% (Sep 18, 5:30 AM)29.95 "Hg (Sep 18, 5:30 AM)
Low77 °F (Sep 21, 6:00 AM)55% (Sep 21, 3:30 PM)29.59 "Hg (Sep 20, 3:00 AM)
Average84 °F75%29.81 "Hg
* Reported Sep 17 11:00 PM — Oct 2 11:30 PM, Macau, Weather by CustomWeather, © 2014

Note: Actual official high and low records may vary slightly from our data, if they occured in-between our weather recording intervals... More about our weather records

Advertising

Macau weather history for previous 24 hours

 ConditionsComfort  
Time TempWeatherWind HumidityBarometerVisibility
11:30 PM
Oct 2
84 °FClear.8 mph79%29.80 "Hg6 mi
11:00 PM84 °FPassing clouds.8 mph79%29.80 "Hg6 mi
10:30 PM84 °FPassing clouds.8 mph79%29.80 "Hg6 mi
10:00 PM84 °FPassing clouds.6 mph84%29.80 "Hg6 mi
9:30 PM84 °FPassing clouds.5 mph79%29.80 "Hg6 mi
9:00 PM84 °FClear.6 mph84%29.80 "Hg10 mi
8:30 PM84 °FClear.6 mph79%29.80 "Hg10 mi
8:00 PM84 °FClear.7 mph79%29.80 "Hg10 mi
7:30 PM84 °FPassing clouds.8 mph79%29.77 "HgN/A
7:00 PM84 °FPassing clouds.8 mph79%29.77 "HgN/A
6:30 PM84 °FPassing clouds.8 mph79%29.77 "Hg4 mi
6:00 PM86 °FPassing clouds.9 mph75%29.77 "Hg4 mi
5:30 PM86 °FPassing clouds.7 mph75%29.77 "Hg4 mi
5:00 PM86 °FPassing clouds.8 mph75%29.77 "Hg5 mi
4:30 PM86 °FPassing clouds.8 mph70%29.74 "Hg5 mi
4:00 PM86 °FPassing clouds.8 mph70%29.77 "Hg5 mi
3:30 PM86 °FPassing clouds.7 mph70%29.77 "Hg5 mi
3:00 PM88 °FPassing clouds.6 mph66%29.77 "Hg5 mi
2:30 PM90 °FPassing clouds.3 mph63%29.77 "Hg6 mi
2:00 PM88 °FPassing clouds.5 mph66%29.77 "HgN/A
1:30 PM88 °FPassing clouds.2 mph66%29.80 "HgN/A
1:00 PM88 °FScattered clouds.5 mph66%29.83 "HgN/A
12:30 PM86 °FScattered clouds.7 mph70%29.83 "HgN/A
12:00 PM86 °FScattered clouds.5 mph75%29.86 "Hg4 mi
11:30 AM86 °FPassing clouds.3 mph75%29.86 "Hg4 mi
11:00 AM86 °FScattered clouds.3 mph70%29.89 "Hg5 mi
10:30 AM86 °FScattered clouds.2 mph70%29.89 "Hg5 mi
10:00 AM84 °FPassing clouds.3 mph74%29.89 "Hg6 mi
9:30 AM84 °FPassing clouds.5 mph79%29.89 "Hg6 mi
9:00 AM82 °FSprinkles. Scattered clouds.3 mph79%29.89 "Hg5 mi
8:30 AM82 °FScattered clouds.2 mph79%29.89 "Hg6 mi
8:00 AM81 °FScattered clouds.3 mph84%29.89 "Hg5 mi
7:30 AM81 °FScattered clouds.5 mph84%29.89 "Hg6 mi
7:00 AM79 °FScattered clouds.3 mph94%29.89 "Hg6 mi
6:30 AM79 °FScattered clouds.1 mph94%29.86 "Hg5 mi
6:00 AM79 °FPassing clouds.5 mph89%29.86 "Hg6 mi
5:30 AM77 °FPassing clouds.2 mph89%29.86 "Hg6 mi
5:00 AM81 °FStrong thunderstorms. Partly cloudy.7 mph84%29.86 "Hg2 mi
4:30 AM82 °FThunderstorms. Partly cloudy.5 mph79%29.86 "HgN/A
4:00 AM82 °FThunderstorms. Passing clouds.5 mph84%29.86 "HgN/A
3:30 AM82 °FThundershowers. Passing clouds.6 mph84%29.83 "Hg4 mi
3:00 AM82 °FThundershowers. Passing clouds.7 mph84%29.86 "HgN/A
2:30 AM82 °FThundershowers. Passing clouds.6 mph84%29.86 "HgN/A
2:00 AM82 °FPassing clouds.8 mph84%29.86 "HgN/A
1:30 AM82 °FPassing clouds.8 mph84%29.86 "HgN/A
1:00 AM82 °FPassing clouds.6 mph84%29.86 "HgN/A
12:30 AM82 °FPassing clouds.8 mph84%29.86 "HgN/A
12:00 AM82 °FPassing clouds.8 mph84%29.89 "HgN/A
Weather by CustomWeather, © 2014

See weather overviewHow to use our weather pages